• In Uzbekistan
  • List of Countries
  • For 7 days
  • Water Temperature
  • Satellite Maps
  • Weather Map
  • Weather Widgets
  • user-avatar
    Login

    Hourly Weather Cardoso

    Today, 18 June, Monday

    Time Temperature Precipitation Wind Pressure Humidity
    00:00 +20°C° 0 mm 2 mps 731 mmHg 85%
    01:00 +19°C° 0 mm 2 mps 731 mmHg 87%
    02:00 +19°C° 0 mm 2 mps 731 mmHg 88%
    03:00 +19°C° 0 mm 2 mps 731 mmHg 90%
    04:00 +18°C° 0 mm 2 mps 731 mmHg 91%
    05:00 +18°C° 0 mm 2 mps 731 mmHg 93%
    06:00 +18°C° 0 mm 2 mps 730 mmHg 94%
    07:00 +19°C° 0 mm 2 mps 731 mmHg 90%
    08:00 +20°C° 0 mm 2 mps 731 mmHg 85%
    09:00 +21°C° 0 mm 2 mps 732 mmHg 80%
    10:00 +24°C° 0.1 mm 2 mps 732 mmHg 74%
    11:00 +26°C° 0.1 mm 2 mps 732 mmHg 67%
    12:00 +28°C° 0.1 mm 2 mps 732 mmHg 60%
    13:00 +28°C° 0.3 mm 2 mps 731 mmHg 58%
    14:00 +28°C° 0.3 mm 2 mps 731 mmHg 57%
    15:00 +29°C° 0.3 mm 1 mps 731 mmHg 55%
    16:00 +27°C° 0.8 mm 1 mps 730 mmHg 62%
    17:00 +25°C° 0.8 mm 1 mps 730 mmHg 69%
    18:00 +24°C° 0.8 mm 1 mps 730 mmHg 76%
    19:00 +23°C° 0.4 mm 2 mps 730 mmHg 79%
    20:00 +23°C° 0.4 mm 2 mps 730 mmHg 81%
    21:00 +21°C° 0.4 mm 2 mps 731 mmHg 83%
    22:00 +21°C° 0.2 mm 2 mps 731 mmHg 84%
    23:00 +20°C° 0.2 mm 2 mps 731 mmHg 86%

    Tomorrow, 19 June, Tuesday

    Time Temperature Precipitation Wind Pressure Humidity
    00:00 +20°C° 0.2 mm 2 mps 731 mmHg 88%
    01:00 +20°C° 0 mm 2 mps 731 mmHg 89%
    02:00 +19°C° 0 mm 2 mps 730 mmHg 90%
    03:00 +19°C° 0 mm 2 mps 730 mmHg 91%
    04:00 +19°C° 0.1 mm 2 mps 730 mmHg 91%
    05:00 +18°C° 0.1 mm 2 mps 730 mmHg 92%
    06:00 +18°C° 0.1 mm 2 mps 730 mmHg 93%
    07:00 +19°C° 0.1 mm 3 mps 730 mmHg 88%
    08:00 +20°C° 0.1 mm 3 mps 731 mmHg 83%
    09:00 +21°C° 0.1 mm 3 mps 731 mmHg 79%
    10:00 +24°C° 0 mm 3 mps 731 mmHg 71%
    11:00 +26°C° 0 mm 3 mps 731 mmHg 63%
    12:00 +27°C° 0 mm 3 mps 731 mmHg 55%
    13:00 +28°C° 0 mm 3 mps 731 mmHg 52%
    14:00 +28°C° 0 mm 3 mps 730 mmHg 50%
    15:00 +29°C° 0 mm 3 mps 730 mmHg 48%
    16:00 +27°C° 0 mm 2 mps 730 mmHg 52%
    17:00 +26°C° 0 mm 2 mps 729 mmHg 57%
    18:00 +24°C° 0 mm 1 mps 729 mmHg 62%
    19:00 +24°C° 0 mm 1 mps 730 mmHg 64%
    20:00 +23°C° 0 mm 2 mps 730 mmHg 66%
    21:00 +21°C° 0 mm 2 mps 730 mmHg 69%
    22:00 +21°C° 0 mm 2 mps 730 mmHg 71%
    23:00 +21°C° 0 mm 2 mps 730 mmHg 73%

    Day after tomorrow, 20 June, Wednesday

    Time Temperature Precipitation Wind Pressure Humidity
    00:00 +20°C° 0 mm 2 mps 730 mmHg 76%
    01:00 +20°C° 0 mm 2 mps 730 mmHg 77%
    02:00 +19°C° 0 mm 2 mps 730 mmHg 79%
    03:00 +19°C° 0 mm 2 mps 730 mmHg 81%
    04:00 +19°C° 0 mm 2 mps 730 mmHg 81%
    05:00 +18°C° 0 mm 2 mps 730 mmHg 81%
    06:00 +18°C° 0 mm 3 mps 730 mmHg 82%
    07:00 +19°C° 0 mm 3 mps 731 mmHg 78%
    08:00 +20°C° 0 mm 3 mps 731 mmHg 74%
    09:00 +21°C° 0 mm 4 mps 732 mmHg 69%
    10:00 +23°C° 0 mm 4 mps 732 mmHg 64%
    11:00 +26°C° 0 mm 4 mps 732 mmHg 59%
    12:00 +27°C° 0 mm 4 mps 732 mmHg 54%
    13:00 +28°C° 0 mm 3 mps 731 mmHg 52%
    14:00 +28°C° 0 mm 3 mps 730 mmHg 50%
    15:00 +29°C° 0 mm 2 mps 730 mmHg 48%
    16:00 +27°C° 0 mm 2 mps 729 mmHg 52%
    17:00 +26°C° 0 mm 1 mps 729 mmHg 57%
    18:00 +24°C° 0 mm 1 mps 729 mmHg 61%
    19:00 +24°C° 0 mm 1 mps 729 mmHg 63%
    20:00 +23°C° 0 mm 2 mps 729 mmHg 65%
    21:00 +21°C° 0 mm 2 mps 730 mmHg 67%
    22:00 +21°C° 0 mm 2 mps 730 mmHg 68%
    23:00 +20°C° 0 mm 2 mps 729 mmHg 69%

    21 June, Thursday

    Time Temperature Precipitation Wind Pressure Humidity
    00:00 +20°C° 0 mm 2 mps 729 mmHg 71%
    01:00 +20°C° 0 mm 2 mps 729 mmHg 72%
    02:00 +19°C° 0 mm 2 mps 729 mmHg 73%
    03:00 +19°C° 0 mm 2 mps 729 mmHg 74%
    04:00 +19°C° 0 mm 2 mps 729 mmHg 75%
    05:00 +18°C° 0 mm 2 mps 729 mmHg 76%
    06:00 +18°C° 0 mm 2 mps 729 mmHg 77%
    07:00 +19°C° 0 mm 2 mps 730 mmHg 74%
    08:00 +21°C° 0 mm 2 mps 730 mmHg 70%
    09:00 +22°C° 0 mm 3 mps 731 mmHg 66%
    10:00 +24°C° 0 mm 3 mps 731 mmHg 60%
    11:00 +26°C° 0 mm 3 mps 731 mmHg 55%
    12:00 +28°C° 0 mm 3 mps 731 mmHg 50%
    13:00 +28°C° 0 mm 3 mps 730 mmHg 48%
    14:00 +29°C° 0 mm 2 mps 729 mmHg 47%
    15:00 +29°C° 0 mm 2 mps 729 mmHg 45%
    16:00 +28°C° 0 mm 2 mps 729 mmHg 49%
    17:00 +26°C° 0 mm 1 mps 728 mmHg 54%
    18:00 +23°C° 0 mm 0 mps 728 mmHg 58%
    19:00 +24°C° 0 mm 1 mps 729 mmHg 60%
    20:00 +23°C° 0 mm 1 mps 729 mmHg 61%
    21:00 +23°C° 0 mm 1 mps 729 mmHg 63%
    22:00 +22°C° 0 mm 1 mps 729 mmHg 64%
    23:00 +22°C° 0 mm 1 mps 729 mmHg 66%

    22 June, Friday

    Time Temperature Precipitation Wind Pressure Humidity
    00:00 +22°C° 0 mm 1 mps 729 mmHg 67%
    01:00 +21°C° 0 mm 1 mps 729 mmHg 69%
    02:00 +21°C° 0 mm 1 mps 729 mmHg 70%
    03:00 +20°C° 0 mm 2 mps 729 mmHg 71%
    04:00 +19°C° 0 mm 2 mps 729 mmHg 73%
    05:00 +19°C° 0 mm 2 mps 729 mmHg 74%
    06:00 +19°C° 0 mm 2 mps 729 mmHg 75%
    07:00 +20°C° 0 mm 3 mps 729 mmHg 72%
    08:00 +21°C° 0 mm 3 mps 730 mmHg 69%
    09:00 +22°C° 0 mm 3 mps 730 mmHg 66%
    10:00 +25°C° 0 mm 3 mps 730 mmHg 60%
    11:00 +27°C° 0 mm 3 mps 730 mmHg 53%
    12:00 +29°C° 0 mm 3 mps 730 mmHg 47%
    13:00 +29°C° 0 mm 2 mps 729 mmHg 43%
    14:00 +30°C° 0 mm 2 mps 728 mmHg 40%
    15:00 +30°C° 0 mm 1 mps 728 mmHg 37%
    16:00 +28°C° 0 mm 1 mps 728 mmHg 41%
    17:00 +27°C° 0 mm 1 mps 728 mmHg 45%
    18:00 +23°C° 0 mm 0 mps 727 mmHg 49%
    19:00 +24°C° 0 mm 1 mps 728 mmHg 50%
    20:00 +24°C° 0 mm 1 mps 728 mmHg 52%
    21:00 +23°C° 0 mm 1 mps 728 mmHg 54%
    22:00 +23°C° 0 mm 2 mps 728 mmHg 56%
    23:00 +21°C° 0 mm 2 mps 728 mmHg 58%

    23 June, Saturday

    Time Temperature Precipitation Wind Pressure Humidity
    00:00 +21°C° 0 mm 2 mps 728 mmHg 60%
    01:00 +20°C° 0 mm 2 mps 727 mmHg 62%
    02:00 +20°C° 0 mm 2 mps 727 mmHg 63%
    03:00 +19°C° 0 mm 2 mps 727 mmHg 65%
    04:00 +19°C° 0 mm 2 mps 727 mmHg 67%
    05:00 +19°C° 0 mm 2 mps 727 mmHg 69%
    06:00 +18°C° 0 mm 2 mps 727 mmHg 71%
    07:00 +19°C° 0 mm 2 mps 727 mmHg 69%
    08:00 +20°C° 0 mm 2 mps 728 mmHg 68%
    09:00 +21°C° 0 mm 2 mps 728 mmHg 67%
    10:00 +23°C° 0 mm 2 mps 728 mmHg 64%
    11:00 +24°C° 0 mm 2 mps 728 mmHg 62%
    12:00 +25°C° 0 mm 2 mps 728 mmHg 60%
    13:00 +26°C° 0 mm 2 mps 727 mmHg 57%
    14:00 +27°C° 0 mm 2 mps 727 mmHg 54%
    15:00 +28°C° 0 mm 2 mps 726 mmHg 51%
    16:00 +27°C° 0 mm 2 mps 726 mmHg 55%
    17:00 +26°C° 0 mm 2 mps 726 mmHg 58%
    18:00 +25°C° 0 mm 1 mps 726 mmHg 62%
    19:00 +24°C° 0 mm 1 mps 726 mmHg 65%
    20:00 +23°C° 0 mm 2 mps 726 mmHg 67%
    21:00 +23°C° 0 mm 2 mps 727 mmHg 70%
    22:00 +21°C° 0 mm 2 mps 727 mmHg 71%
    23:00 +21°C° 0 mm 2 mps 727 mmHg 72%
    Show more